Weather in Rio de Janeiro

Brazil     22°54′11″S   43°11′23″W
temp.,
°C
wind,
m/s
gust,
m/s
humid.,
%
clouds,
%
prec.,
mm/h
press.,
hPa
HPBL,
m
9 may, sun
sun900:00+22ene346747 0.0 1025664
03:00+20nne22752 0.0 1023169
06:00+19ne12780 0.1 1024143
09:00+21ene23724 0.4 1026505
12:00+22ese436823 0.1 1024901
15:00+22e566918 0.3 1023919
18:00+21e577067 0.0 1024870
21:00+21e567031 0.0 1025805
10 may, mon
mon1000:00+20ene467519 0.0 1024595
03:00+19ne34771 0.0 1023453
06:00+19ne35810 0.0 1023285
09:00+21ne35710 0.0 1025640
12:00+22e44615 0.0 10221041
15:00+22e45631 0.0 1020827
18:00+21e56670 0.0 1020524
21:00+20ene56680 0.0 1021487
11 may, tue
tue1100:00+19ne45710 0.0 1020317
03:00+18ne33760 0.0 1018209
06:00+18nne33814 0.0 1018171
09:00+20nne23705 0.0 1018337
12:00+24e12575 0.0 1016489
15:00+23ese33620 0.0 1013366
18:00+22e34725 0.0 1014215
21:00+22ne227511 0.0 1015122
12 may, wed
wed1200:00+21n227599 0.0 101474
03:00+20nne337995 0.0 1012106
06:00+20n337896 0.0 1011104
09:00+23w236671 0.0 1012258
12:00+25wsw787297 0.0 10131007
15:00+24sw8108099 0.1 10121011
18:00+21ssw7988100 2.8 1015890
21:00+19ssw4694100 8.9 1017516
13 may, thu
thu1300:00+20wsw5790100 9.1 1017607
03:00+20sw4686100 13.1 1017448
06:00+20sw457971 1.1 1018593
09:00+21sw357764 2.0 1020756
12:00+22sw446370 0.2 10191167
15:00+22sw446460 0.2 1018938
18:00+21sw34680 0.0 1019600
21:00+20sw346882 0.0 1020733